Home > Weather > Varese > Past weeks

Flag for Italy Weather for the Past 2 Weeks in Varese, Italy

Now
36 °F

Overcast.


Feels Like: 33 °F
Forecast: 24 / 44 °F
Wind: 3 mph from North

Location: Lugano Airport

Current Time: Feb 12, 2016 at 1:17:01 AM

Latest Report: Feb 12, 2016 at 12:20 AM


Visibility: N/A

Pressure: 29.77 "Hg

Humidity: 70%

Dew point: 27 °F

Location of VareseLocation

Historic Weather in Varese — Graph

°F

Varese Temperature Yesterday

Maximum temperature yesterday: 54 °F (at 2:50 PM)
Minimum temperature yesterday: 28 °F (at 3:20 AM)
Average temperature yesterday: 39 °F

High & Low Weather Summary for the Past Weeks

 TemperatureHumidityPressure
High59 °F (Jan 31, 2:50 PM)100% (Jan 29, 1:50 AM)30.48 "Hg (Jan 29, 1:50 AM)
Low28 °F (Feb 11, 3:20 AM)18% (Feb 3, 10:20 PM)29.33 "Hg (Feb 10, 1:20 AM)
Average42 °F79%30.09 "Hg
* Reported Jan 27 10:20 PM — Feb 11 10:50 PM, Varese, Weather by CustomWeather, © 2016

Note: Actual official high and low records may vary slightly from our data, if they occured in-between our weather recording intervals... More about our weather records

Advertising

Varese Weather History for the Previous 24 Hours

 ConditionsComfort  
Time TempWeatherWind HumidityBarometerVisibility
10:50 PM
Thu, Feb 11
36 °FPassing clouds.2 mph70%29.77 "HgN/A
10:20 PM36 °FClear.2 mph70%29.77 "HgN/A
9:50 PM37 °FPassing clouds.2 mph65%29.77 "HgN/A
9:20 PM39 °FPassing clouds.1 mph70%29.77 "HgN/A
8:50 PM41 °FPassing clouds.1 mph61%29.77 "HgN/A
8:20 PM41 °FClear.2 mph57%29.77 "Hg10 mi
7:50 PM39 °FChilly.3 mph61%29.77 "HgN/A
7:20 PM41 °FPassing clouds.5 mph57%29.74 "HgN/A
6:50 PM41 °FClear.2 mph61%29.77 "Hg10 mi
6:20 PM43 °FClear.2 mph46%29.74 "Hg10 mi
5:50 PM45 °FClear.2 mph46%29.74 "Hg10 mi
5:20 PM48 °FSunny.2 mph34%29.74 "Hg10 mi
4:50 PM52 °FSunny.3 mph24%29.71 "Hg10 mi
4:20 PM48 °FSunny.3 mph32%29.74 "Hg10 mi
3:50 PM52 °FSunny.3 mph22%29.71 "Hg10 mi
3:20 PM50 °FSunny.3 mph20%29.71 "Hg10 mi
2:50 PM54 °FSunny.2 mph19%29.74 "Hg10 mi
2:20 PM50 °FPassing clouds.3 mph28%29.74 "HgN/A
1:50 PM50 °FPassing clouds.3 mph20%29.74 "HgN/A
1:20 PM48 °FSunny.6 mph32%29.77 "Hg10 mi
12:50 PM48 °FPassing clouds.5 mph32%29.77 "HgN/A
12:20 PM46 °FPassing clouds.3 mph34%29.77 "HgN/A
11:50 AM45 °FPassing clouds.6 mph42%29.80 "HgN/A
11:20 AM45 °FPassing clouds.5 mph39%29.80 "HgN/A
10:50 AM43 °FPassing clouds.3 mph42%29.80 "HgN/A
10:20 AM43 °FSunny.3 mph42%29.80 "Hg10 mi
9:50 AM39 °FSunny.2 mph52%29.77 "Hg10 mi
9:20 AM37 °FSunny.3 mph60%29.77 "Hg10 mi
8:50 AM34 °FSunny.3 mph70%29.77 "Hg10 mi
8:20 AM30 °FSunny.2 mph75%29.77 "Hg10 mi
7:50 AM30 °FSunny.3 mph75%29.74 "Hg10 mi
7:20 AM32 °FClear.5 mph69%29.74 "Hg10 mi
6:50 AM32 °FClear.3 mph69%29.74 "Hg10 mi
6:20 AM30 °FClear.1 mph75%29.71 "Hg10 mi
5:20 AM30 °FClear.1 mph75%29.71 "Hg10 mi
4:50 AM30 °FClear.2 mph80%29.71 "Hg10 mi
4:20 AM30 °FClear.2 mph80%29.71 "Hg10 mi
3:50 AM30 °FClear.3 mph80%29.71 "Hg10 mi
3:20 AM28 °FClear.1 mph80%29.71 "Hg10 mi
2:50 AM30 °FClear.2 mph80%29.71 "Hg10 mi
2:20 AM30 °FClear.1 mph75%29.71 "Hg10 mi
1:50 AM30 °FClear.2 mph86%29.68 "Hg10 mi
1:20 AM30 °FClear.2 mph80%29.68 "Hg10 mi
Weather by CustomWeather, © 2016

See weather overviewHow to use our weather pages